Tracking 19827 objects as of 21-Aug-2019
HD Live streaming from Space Station
objects crossing your sky now

FENGYUN 1C DEB

Track FENGYUN 1C DEB now!
10-day predictions


NORAD ID: 31767
Int'l Code: 1999-025CFS
Perigee: 858.0 km
Apogee: 918.5 km
Inclination: 99.1 °
Period: 102.6 minutes
Semi major axis: 7259 km
RCS: 0.0074 m2 (small)
Launch date: May 10, 1999
Source: People's Republic of China (PRC)
Launch site: Taiyaun Space Center, China (TSC)

Note: This is SATELLITE DEBRIS
aabbcc
Your satellite tracking list
Your tracking list is empty




NASA's NSSDC Master Catalog

Two Line Element Set (TLE):
1 31767U 99025CFS 19231.53791343 +.00000250 +00000-0 +18650-3 0  9990
2 31767 099.1035 260.5689 0041651 016.2928 140.0548 14.03660753624485
Source of the keplerian elements: AFSPC